Home   Weather   Nordhorn   Past weeks

Flag for Germany Past Weather in Nordhorn, Lower Saxony, Germany — Yesterday and Last 2 Weeks

Now
44 °F

Overcast.


Feels Like: 41 °F
Forecast: 40 / 44 °F
Wind: 5 mph from South

Location: Twenthe

Current Time: Mar 1, 2017 at 9:12:51 pm

Latest Report: Mar 1, 2017 at 8:00 pm


Visibility: 13 mi

Pressure: 29.50 "Hg

Humidity: 84%

Dew Point: 39 °F

Location of NordhornLocation

Past Weather in Nordhorn — Graph

°F

Nordhorn Temperature Yesterday

Maximum temperature yesterday: 45 °F (at 2:00 pm)
Minimum temperature yesterday: 36 °F (at 8:00 pm)
Average temperature yesterday: 41 °F

High & Low Weather Summary for the Past Weeks

 TemperatureHumidityPressure
High57 °F (Feb 15, 4:00 pm)100% (Feb 20, 4:00 pm)30.52 "Hg (Feb 20, 4:00 pm)
Low26 °F (Feb 15, 2:00 am)49% (Feb 15, 2:00 pm)29.09 "Hg (Feb 23, 6:00 pm)
Average44 °F85%29.84 "Hg
* Reported Feb 14 7:00 pm — Mar 1 7:00 pm, Nordhorn, Weather by CustomWeather, © 2017

Note: Actual official high and low records may vary slightly from our data, if they occured in-between our weather recording intervals... More about our weather records

Advertising

Nordhorn Weather History for the Previous 24 Hours

Scroll right to see more
 ConditionsComfort  
Time TempWeatherWind HumidityBarometerVisibility
7:00 pm
Wed, Mar 1
42 °FOvercast.2 mph81%29.53 "Hg25 mi
6:00 pm45 °FOvercast.5 mph72%29.54 "Hg28 mi
5:00 pm46 °FOvercast.3 mph70%29.54 "Hg25 mi
4:00 pm47 °FOvercast.6 mph70%29.54 "Hg19 mi
3:00 pm47 °FOvercast.5 mph72%29.54 "Hg25 mi
2:00 pm46 °FOvercast.6 mph78%29.54 "Hg22 mi
1:00 pm45 °FOvercast.6 mph76%29.54 "Hg25 mi
12:00 pm44 °FLow clouds.7 mph82%29.50 "Hg17 mi
11:00 am42 °FLow clouds.7 mph92%29.50 "Hg9 mi
10:00 am42 °FLow clouds.8 mph92%29.44 "Hg8 mi
9:00 am41 °FRain showers. Low clouds.5 mph97%29.41 "Hg2 mi
8:00 am39 °FLow clouds.3 mph97%29.38 "Hg5 mi
7:00 am37 °FLight rain. Low clouds.2 mph97%29.35 "Hg2 mi
6:00 am37 °FLow clouds.3 mph96%29.35 "Hg3 mi
5:00 am37 °FDrizzle. Low clouds.5 mph94%29.35 "Hg11 mi
4:00 am36 °FLow clouds.5 mph95%29.35 "Hg12 mi
3:00 am36 °FPassing clouds.3 mph95%29.35 "Hg7 mi
2:00 am36 °FOvercast.5 mph91%29.35 "Hg10 mi
1:00 am37 °FOvercast.5 mph90%29.35 "Hg16 mi
12:00 am37 °FPassing clouds.6 mph91%29.35 "Hg7 mi
11:00 pm
Tue, Feb 28
37 °FLow clouds.6 mph93%29.32 "Hg4 mi
10:00 pm37 °FLow clouds.6 mph94%29.32 "Hg4 mi
9:00 pm36 °FPassing clouds.6 mph96%29.32 "Hg5 mi
Weather by CustomWeather, © 2017

See weather overviewHow to use our weather pages